�������l�o���
Date,Time,MP-1(��Sv/h),MP-2(��Sv/h),MP-3(��Sv/h),MP-4(��Sv/h),MP-5(��Sv/h),MP-6(��Sv/h),MP-7(��Sv/h),MP-8(��Sv/h),����,����(m/s),���J
2022/08/02,00:00,0.615,0.863,0.545,1.028,0.738,0.345,0.595,0.560,�k�k��,1.7,��
2022/08/02,00:10,0.614,0.863,0.544,1.028,0.739,0.345,0.595,0.560,�k,1.2,��
2022/08/02,00:20,0.615,0.862,0.544,1.025,0.739,0.346,0.594,0.560,�k�k��,0.9,��
2022/08/02,00:30,0.615,0.862,0.544,1.027,0.742,0.345,0.595,0.560,�k�k��,1.1,��
2022/08/02,00:40,0.614,0.865,0.545,1.027,0.741,0.345,0.594,0.558,-,CALM,��
2022/08/02,00:50,0.613,0.864,0.546,1.029,0.740,0.346,0.592,0.560,��,1.5,��
2022/08/02,01:00,0.615,0.863,0.544,1.028,0.740,0.345,0.595,0.558,�쐼,0.6,��
2022/08/02,01:10,0.614,0.865,0.545,1.030,0.740,0.346,0.595,0.560,��,0.8,��
2022/08/02,01:20,0.614,0.863,0.544,1.029,0.741,0.347,0.594,0.559,-,CALM,��
2022/08/02,01:30,0.615,0.865,0.544,1.028,0.739,0.347,0.595,0.561,�쓌,0.6,��
2022/08/02,01:40,0.614,0.862,0.546,1.026,0.740,0.345,0.595,0.561,-,CALM,��
2022/08/02,01:50,0.614,0.864,0.546,1.027,0.741,0.346,0.596,0.561,�k,0.6,��
2022/08/02,02:00,0.614,0.861,0.545,1.029,0.741,0.345,0.595,0.562,�k�k��,0.9,��
2022/08/02,02:10,0.614,0.865,0.543,1.027,0.741,0.347,0.595,0.560,-,CALM,��
2022/08/02,02:20,0.616,0.864,0.545,1.027,0.740,0.346,0.595,0.560,-,CALM,��
2022/08/02,02:30,0.614,0.864,0.544,1.028,0.741,0.345,0.594,0.561,-,CALM,��
2022/08/02,02:40,0.614,0.863,0.544,1.030,0.742,0.347,0.596,0.561,�쐼,1.1,��
2022/08/02,02:50,0.614,0.866,0.547,1.029,0.742,0.347,0.593,0.560,-,CALM,��
2022/08/02,03:00,0.616,0.863,0.546,1.027,0.738,0.346,0.596,0.560,�k�k��,0.6,��
2022/08/02,03:10,0.616,0.863,0.544,1.028,0.742,0.347,0.594,0.562,�k��,0.8,��
2022/08/02,03:20,0.615,0.861,0.545,1.029,0.743,0.347,0.595,0.559,�k�k��,0.6,��
2022/08/02,03:30,0.614,0.866,0.545,1.030,0.740,0.346,0.594,0.561,�k�k��,1.7,��
2022/08/02,03:40,0.615,0.867,0.547,1.029,0.740,0.347,0.593,0.560,�k�k��,1.4,��
2022/08/02,03:50,0.617,0.863,0.546,1.029,0.742,0.346,0.595,0.560,�k�k��,0.8,��
2022/08/02,04:00,0.615,0.864,0.547,1.031,0.741,0.347,0.595,0.560,�k,0.9,��
2022/08/02,04:10,0.613,0.864,0.545,1.029,0.742,0.347,0.595,0.560,-,CALM,��
2022/08/02,04:20,0.614,0.863,0.546,1.029,0.743,0.348,0.595,0.560,-,CALM,��
2022/08/02,04:30,0.616,0.866,0.545,1.029,0.740,0.347,0.595,0.561,-,CALM,��
2022/08/02,04:40,0.613,0.864,0.545,1.031,0.743,0.345,0.596,0.561,�쐼,1.9,��
2022/08/02,04:50,0.613,0.864,0.547,1.030,0.740,0.346,0.596,0.561,��쐼,1.9,��
2022/08/02,05:00,0.614,0.864,0.547,1.029,0.742,0.346,0.595,0.559,��쐼,0.9,��
2022/08/02,05:10,0.614,0.864,0.545,1.031,0.741,0.346,0.594,0.562,��쓌,1.5,��
2022/08/02,05:20,0.615,0.862,0.546,1.029,0.743,0.347,0.595,0.560,-,CALM,��
2022/08/02,05:30,0.615,0.864,0.546,1.030,0.741,0.346,0.595,0.559,��쓌,0.6,��
2022/08/02,05:40,0.614,0.864,0.546,1.030,0.742,0.347,0.596,0.560,��쓌,1.2,��
2022/08/02,05:50,0.615,0.865,0.547,1.028,0.742,0.346,0.596,0.560,-,CALM,��
2022/08/02,06:00,0.613,0.864,0.547,1.028,0.743,0.346,0.594,0.562,��,0.8,��
2022/08/02,06:10,0.614,0.864,0.546,1.028,0.741,0.346,0.595,0.561,��쓌,1.7,��
2022/08/02,06:20,0.613,0.863,0.547,1.030,0.741,0.347,0.596,0.560,��,2.3,��
2022/08/02,06:30,0.615,0.864,0.546,1.029,0.741,0.347,0.595,0.560,��,4.0,��
2022/08/02,06:40,0.615,0.864,0.546,1.030,0.742,0.346,0.595,0.559,��쐼,3.0,��
2022/08/02,06:50,0.616,0.865,0.546,1.029,0.740,0.347,0.596,0.561,��,2.3,��
2022/08/02,07:00,0.618,0.865,0.547,1.026,0.740,0.347,0.596,0.560,�쐼,0.9,��
2022/08/02,07:10,0.615,0.863,0.546,1.029,0.741,0.348,0.597,0.560,�k��,1.4,��
2022/08/02,07:20,0.615,0.863,0.547,1.028,0.740,0.349,0.595,0.560,�k��,1.4,��
2022/08/02,07:30,0.615,0.861,0.547,1.029,0.739,0.347,0.597,0.561,�k,1.1,��
2022/08/02,07:40,0.613,0.860,0.545,1.029,0.740,0.346,0.596,0.560,�k�k��,0.6,��
2022/08/02,07:50,0.616,0.860,0.545,1.027,0.741,0.346,0.596,0.560,�k��,0.9,��
2022/08/02,08:00,0.617,0.862,0.544,1.030,0.741,0.346,0.597,0.563,�쓌,1.7,��
2022/08/02,08:10,0.614,0.860,0.545,1.028,0.743,0.344,0.597,0.562,�쓌,1.7,��
2022/08/02,08:20,0.616,0.861,0.544,1.028,0.740,0.344,0.597,0.562,-,CALM,��
2022/08/02,08:30,0.616,0.859,0.545,1.029,0.740,0.346,0.596,0.560,��,0.6,��
2022/08/02,08:40,0.617,0.860,0.547,1.030,0.739,0.346,0.598,0.559,��,0.9,��
2022/08/02,08:50,0.615,0.861,0.544,1.030,0.739,0.347,0.596,0.559,���쐼,0.6,��
2022/08/02,09:00,0.616,0.860,0.545,1.031,0.741,0.345,0.596,0.560,�쐼,1.4,��
2022/08/02,09:10,0.616,0.861,0.545,1.028,0.742,0.345,0.597,0.559,���쐼,1.7,��
2022/08/02,09:20,0.617,0.857,0.545,1.029,0.740,0.346,0.596,0.560,���쐼,1.7,��
2022/08/02,09:30,0.617,0.861,0.546,1.032,0.741,0.345,0.597,0.559,�쐼,1.5,��
2022/08/02,09:40,0.617,0.862,0.545,1.030,0.740,0.346,0.597,0.558,���k��,0.9,��
2022/08/02,09:50,0.615,0.861,0.545,1.031,0.742,0.345,0.596,0.559,�k�k��,1.4,�L
2022/08/02,10:00,0.616,0.860,0.545,1.031,0.741,0.345,0.596,0.559,�k�k��,2.2,�L
2022/08/02,10:10,0.616,0.863,0.545,1.030,0.743,0.346,0.597,0.558,�k�k��,1.9,��
2022/08/02,10:20,0.616,0.867,0.547,1.031,0.743,0.345,0.595,0.560,-,CALM,��
2022/08/02,10:30,0.616,0.863,0.545,1.030,0.744,0.345,0.596,0.558,���쓌,0.9,��
2022/08/02,10:40,0.615,0.863,0.546,1.029,0.743,0.344,0.595,0.559,��,0.8,��
2022/08/02,10:50,0.619,0.862,0.547,1.032,0.742,0.345,0.596,0.561,��,2.0,��
2022/08/02,11:00,0.617,0.862,0.546,1.030,0.744,0.345,0.594,0.561,�쐼,2.3,��
2022/08/02,11:10,0.618,0.865,0.547,1.031,0.745,0.346,0.595,0.560,���쐼,3.4,�L
2022/08/02,11:20,0.619,0.866,0.547,1.030,0.744,0.346,0.595,0.558,�쐼,2.3,��
2022/08/02,11:30,0.616,0.865,0.547,1.030,0.744,0.346,0.595,0.559,���쐼,1.9,��
2022/08/02,11:40,0.619,0.866,0.549,1.030,0.743,0.347,0.596,0.558,��,1.7,��
2022/08/02,11:50,0.620,0.864,0.549,1.030,0.744,0.347,0.596,0.561,��,0.9,��
2022/08/02,12:00,0.619,0.867,0.548,1.029,0.742,0.347,0.595,0.560,���k��,0.9,��
2022/08/02,12:10,0.620,0.866,0.546,1.032,0.743,0.346,0.595,0.560,�쓌,1.4,��
2022/08/02,12:20,0.620,0.868,0.548,1.030,0.741,0.346,0.595,0.560,���k��,0.8,��
2022/08/02,12:30,0.621,0.868,0.545,1.031,0.742,0.347,0.593,0.562,�k�k��,1.9,��
2022/08/02,12:40,0.621,0.867,0.548,1.031,0.745,0.346,0.597,0.562,�k�k��,2.8,��
2022/08/02,12:50,0.619,0.864,0.548,1.031,0.744,0.348,0.598,0.560,�k��,4.6,��
2022/08/02,13:00,0.621,0.866,0.548,1.030,0.744,0.348,0.597,0.561,���k��,4.2,��
2022/08/02,13:10,0.621,0.864,0.549,1.031,0.745,0.348,0.599,0.562,���k��,4.4,��
2022/08/02,13:20,0.620,0.865,0.549,1.031,0.744,0.347,0.598,0.562,���k��,5.3,��
2022/08/02,13:30,0.621,0.868,0.549,1.031,0.744,0.348,0.599,0.563,���k��,4.9,��
2022/08/02,13:40,0.620,0.866,0.548,1.032,0.743,0.346,0.598,0.564,���k��,4.0,��
2022/08/02,13:50,0.621,0.864,0.549,1.032,0.744,0.348,0.600,0.562,���k��,2.6,��
2022/08/02,14:00,0.622,0.864,0.546,1.033,0.744,0.347,0.599,0.564,���쐼,1.7,��
2022/08/02,14:10,0.621,0.863,0.548,1.031,0.742,0.347,0.597,0.562,���쐼,2.0,��
2022/08/02,14:20,0.622,0.864,0.549,1.032,0.744,0.348,0.598,0.564,���쐼,2.5,��
2022/08/02,14:30,0.621,0.865,0.549,1.034,0.744,0.347,0.598,0.563,��,2.9,��
2022/08/02,14:40,0.623,0.866,0.549,1.033,0.744,0.348,0.599,0.563,���쐼,3.9,��
2022/08/02,14:50,0.623,0.867,0.549,1.033,0.745,0.348,0.598,0.563,���쐼,3.5,��
2022/08/02,15:00,0.623,0.868,0.550,1.035,0.746,0.349,0.599,0.562,���쐼,4.6,��
2022/08/02,15:10,0.623,0.868,0.548,1.034,0.744,0.348,0.599,0.564,��,4.2,��
2022/08/02,15:20,0.625,0.867,0.549,1.035,0.745,0.349,0.600,0.563,��,5.1,��
2022/08/02,15:30,0.623,0.867,0.549,1.034,0.745,0.348,0.598,0.564,��,6.2,��
2022/08/02,15:40,0.622,0.868,0.550,1.031,0.743,0.347,0.599,0.564,��,4.7,��
2022/08/02,15:50,0.619,0.867,0.549,1.033,0.746,0.348,0.600,0.562,��,4.6,��
2022/08/02,16:00,0.620,0.867,0.548,1.032,0.746,0.349,0.601,0.564,��,5.4,��
2022/08/02,16:10,0.622,0.868,0.552,1.032,0.746,0.350,0.599,0.565,��,5.3,��
2022/08/02,16:20,0.621,0.869,0.551,1.036,0.745,0.348,0.598,0.564,��,5.7,��
2022/08/02,16:30,0.623,0.871,0.549,1.036,0.746,0.348,0.599,0.564,��,4.5,��
2022/08/02,16:40,0.624,0.870,0.550,1.039,0.745,0.349,0.600,0.563,���쐼,3.5,��
2022/08/02,16:50,0.624,0.868,0.550,1.038,0.745,0.349,0.600,0.563,��,5.7,��
2022/08/02,17:00,0.623,0.869,0.549,1.036,0.745,0.347,0.600,0.562,��,5.4,��
2022/08/02,17:10,0.623,0.867,0.549,1.035,0.745,0.347,0.597,0.562,���쐼,5.1,��
2022/08/02,17:20,0.622,0.869,0.550,1.035,0.744,0.348,0.598,0.563,��,4.9,��
2022/08/02,17:30,0.624,0.867,0.548,1.036,0.745,0.347,0.599,0.562,���k��,4.0,��
2022/08/02,17:40,0.623,0.868,0.546,1.037,0.744,0.346,0.599,0.563,�k�k��,4.0,��
2022/08/02,17:50,0.622,0.866,0.548,1.036,0.744,0.346,0.599,0.562,�k,2.2,��
2022/08/02,18:00,0.620,0.867,0.550,1.033,0.744,0.345,0.598,0.562,�k,2.8,��
2022/08/02,18:10,0.621,0.866,0.547,1.031,0.743,0.345,0.597,0.563,�k�k��,1.4,��
2022/08/02,18:20,0.620,0.865,0.548,1.035,0.744,0.346,0.598,0.561,�k,1.7,��
2022/08/02,18:30,0.621,0.865,0.547,1.035,0.742,0.345,0.598,0.562,�k�k��,1.2,��
2022/08/02,18:40,0.621,0.868,0.545,1.036,0.743,0.346,0.599,0.561,-,CALM,��
2022/08/02,18:50,0.619,0.868,0.547,1.036,0.745,0.346,0.598,0.562,�k,1.7,��
2022/08/02,19:00,0.621,0.868,0.549,1.038,0.744,0.346,0.598,0.563,�k��,1.7,�L
2022/08/02,19:10,0.621,0.869,0.547,1.036,0.744,0.346,0.599,0.562,�k��,3.4,�L
2022/08/02,19:20,0.620,0.867,0.549,1.037,0.745,0.347,0.599,0.561,�k��,4.6,�L
2022/08/02,19:30,0.620,0.868,0.548,1.036,0.745,0.347,0.597,0.563,�k,4.0,�L
2022/08/02,19:40,0.620,0.867,0.548,1.036,0.744,0.345,0.597,0.561,�k,4.6,�L
2022/08/02,19:50,0.621,0.869,0.546,1.033,0.745,0.347,0.596,0.562,�k�k��,3.9,��
2022/08/02,20:00,0.621,0.868,0.547,1.035,0.743,0.347,0.596,0.561,�k�k��,4.0,��
2022/08/02,20:10,0.620,0.868,0.548,1.034,0.743,0.347,0.597,0.561,�k��,3.8,��
2022/08/02,20:20,0.619,0.867,0.547,1.035,0.744,0.346,0.596,0.560,�k��,3.5,��
2022/08/02,20:30,0.621,0.867,0.547,1.034,0.743,0.344,0.597,0.561,�k�k��,3.6,��
2022/08/02,20:40,0.619,0.867,0.545,1.034,0.744,0.345,0.596,0.561,�k�k��,3.3,��
2022/08/02,20:50,0.620,0.864,0.547,1.035,0.743,0.345,0.594,0.561,�k,2.9,��
2022/08/02,21:00,0.619,0.868,0.547,1.034,0.744,0.345,0.596,0.561,�k,2.3,��
2022/08/02,21:10,0.619,0.867,0.546,1.036,0.745,0.346,0.596,0.561,�k,2.0,��
2022/08/02,21:20,0.618,0.868,0.546,1.034,0.744,0.346,0.597,0.561,�k�k��,1.5,��
2022/08/02,21:30,0.620,0.867,0.545,1.033,0.744,0.345,0.596,0.560,�k��,1.2,��
2022/08/02,21:40,0.618,0.866,0.548,1.034,0.746,0.347,0.595,0.559,��,0.6,��
2022/08/02,21:50,0.620,0.867,0.548,1.036,0.746,0.347,0.596,0.560,-,CALM,��
2022/08/02,22:00,0.620,0.868,0.548,1.035,0.745,0.346,0.597,0.560,�쐼,0.8,��
2022/08/02,22:10,0.621,0.868,0.549,1.037,0.744,0.346,0.597,0.561,-,CALM,��
2022/08/02,22:20,0.619,0.867,0.548,1.035,0.745,0.347,0.598,0.562,��쓌,0.6,��
2022/08/02,22:30,0.619,0.867,0.548,1.035,0.744,0.346,0.596,0.560,��,0.9,��
2022/08/02,22:40,0.620,0.868,0.546,1.038,0.745,0.346,0.597,0.560,-,CALM,��
2022/08/02,22:50,0.619,0.868,0.549,1.036,0.743,0.345,0.598,0.560,-,CALM,��
2022/08/02,23:00,0.618,0.868,0.546,1.035,0.744,0.347,0.597,0.561,-,CALM,��
2022/08/02,23:10,0.619,0.867,0.548,1.038,0.745,0.348,0.596,0.562,-,CALM,��
2022/08/02,23:20,0.618,0.868,0.545,1.035,0.745,0.347,0.597,0.562,�쓌,0.6,��
2022/08/02,23:30,0.619,0.866,0.548,1.034,0.745,0.346,0.597,0.560,-,CALM,��
2022/08/02,23:40,0.618,0.866,0.547,1.036,0.746,0.347,0.597,0.562,-,CALM,��
2022/08/02,23:50,0.619,0.866,0.547,1.034,0.746,0.347,0.597,0.562,��,0.8,��
